contact:dominique.lefevre@mio.osupytheas.fr, maurice.libes@osupytheas.fr, didier.mallarino@osupytheas.fr
Project:EMSO http://www.emso-fr.org/EMSO-France
Depth: 2436.0 m
Title:EMSO Ligure Ouest : Data MII capteur MICROCAT
DateTime_Computer,Latitude,Longitude,Temperature,Conductivity,Pressure,DateTime_Instrument
DateTime_Computer,Latitude,Longitude,degC,S m-1,dbar,DateTime_Instrument
2022-05-08T00:01:48Z,42.805,6.029,13.2996,4.60032,2470.18,2022-5-08T02:03:29Z
2022-05-08T00:04:51Z,42.805,6.029,13.2996,4.60031,2470.18,2022-5-08T02:06:32Z
2022-05-08T00:07:54Z,42.805,6.029,13.2997,4.60031,2470.18,2022-5-08T02:09:35Z
2022-05-08T00:10:58Z,42.805,6.029,13.2996,4.60031,2470.194,2022-5-08T02:12:38Z
2022-05-08T00:14:01Z,42.805,6.029,13.2996,4.60031,2470.156,2022-5-08T02:15:41Z
2022-05-08T00:17:04Z,42.805,6.029,13.2996,4.60031,2470.18,2022-5-08T02:18:44Z
2022-05-08T00:20:07Z,42.805,6.029,13.2996,4.60031,2470.18,2022-5-08T02:21:47Z
2022-05-08T00:23:10Z,42.805,6.029,13.2995,4.60032,2470.156,2022-5-08T02:24:50Z
2022-05-08T00:26:13Z,42.805,6.029,13.2997,4.60031,2470.194,2022-5-08T02:27:53Z
2022-05-08T00:29:16Z,42.805,6.029,13.3003,4.60032,2470.18,2022-5-08T02:30:57Z
2022-05-08T00:32:19Z,42.805,6.029,13.2996,4.60031,2470.156,2022-5-08T02:34:00Z
2022-05-08T00:35:23Z,42.805,6.029,13.2998,4.60031,2470.203,2022-5-08T02:37:03Z
2022-05-08T00:38:26Z,42.805,6.029,13.2999,4.60030,2470.171,2022-5-08T02:40:06Z
2022-05-08T00:41:29Z,42.805,6.029,13.3000,4.60031,2470.143,2022-5-08T02:43:09Z
2022-05-08T00:44:32Z,42.805,6.029,13.2998,4.60031,2470.171,2022-5-08T02:46:12Z
2022-05-08T00:47:35Z,42.805,6.029,13.2998,4.60031,2470.171,2022-5-08T02:49:15Z
2022-05-08T00:50:38Z,42.805,6.029,13.2996,4.60031,2470.156,2022-5-08T02:52:18Z
2022-05-08T00:53:41Z,42.805,6.029,13.2998,4.60031,2470.18,2022-5-08T02:55:22Z
2022-05-08T00:56:44Z,42.805,6.029,13.2998,4.60031,2470.11,2022-5-08T02:58:25Z
2022-05-08T00:59:47Z,42.805,6.029,13.2995,4.60031,2470.133,2022-5-08T03:01:28Z
2022-05-08T01:02:51Z,42.805,6.029,13.2995,4.60031,2470.171,2022-5-08T03:04:31Z
2022-05-08T01:05:54Z,42.805,6.029,13.2999,4.60031,2470.171,2022-5-08T03:07:34Z
2022-05-08T01:08:57Z,42.805,6.029,13.2996,4.60031,2470.147,2022-5-08T03:10:37Z
2022-05-08T01:12:00Z,42.805,6.029,13.3000,4.60031,2470.11,2022-5-08T03:13:40Z
2022-05-08T01:15:03Z,42.805,6.029,13.2999,4.60031,2470.133,2022-5-08T03:16:43Z
2022-05-08T01:18:06Z,42.805,6.029,13.2996,4.60031,2470.171,2022-5-08T03:19:46Z
2022-05-08T01:21:09Z,42.805,6.029,13.2997,4.60031,2470.18,2022-5-08T03:22:50Z
2022-05-08T01:24:12Z,42.805,6.029,13.2998,4.60031,2470.133,2022-5-08T03:25:53Z
2022-05-08T01:27:15Z,42.805,6.029,13.3001,4.60031,2470.156,2022-5-08T03:28:56Z
2022-05-08T01:30:19Z,42.805,6.029,13.3000,4.60031,2470.171,2022-5-08T03:31:59Z
2022-05-08T01:33:22Z,42.805,6.029,13.2996,4.60031,2470.133,2022-5-08T03:35:02Z
2022-05-08T01:36:25Z,42.805,6.029,13.2998,4.60031,2470.156,2022-5-08T03:38:05Z
2022-05-08T01:39:28Z,42.805,6.029,13.2999,4.60031,2470.156,2022-5-08T03:41:08Z
2022-05-08T01:42:31Z,42.805,6.029,13.2996,4.60031,2470.133,2022-5-08T03:44:11Z
2022-05-08T01:45:34Z,42.805,6.029,13.2997,4.60031,2470.133,2022-5-08T03:47:15Z
2022-05-08T01:48:37Z,42.805,6.029,13.2998,4.60031,2470.133,2022-5-08T03:50:18Z
2022-05-08T01:51:40Z,42.805,6.029,13.2997,4.60031,2470.11,2022-5-08T03:53:21Z
2022-05-08T01:54:44Z,42.805,6.029,13.3002,4.60031,2470.133,2022-5-08T03:56:24Z
2022-05-08T01:57:47Z,42.805,6.029,13.2994,4.60031,2470.156,2022-5-08T03:59:27Z
2022-05-08T02:00:50Z,42.805,6.029,13.2998,4.60031,2470.171,2022-5-08T04:02:30Z
2022-05-08T02:03:53Z,42.805,6.029,13.2995,4.60031,2470.124,2022-5-08T04:05:33Z
2022-05-08T02:06:56Z,42.805,6.029,13.2996,4.60031,2470.11,2022-5-08T04:08:36Z
2022-05-08T02:09:59Z,42.805,6.029,13.3000,4.60031,2470.171,2022-5-08T04:11:39Z
2022-05-08T02:13:02Z,42.805,6.029,13.2996,4.60031,2470.147,2022-5-08T04:14:43Z
2022-05-08T02:16:05Z,42.805,6.029,13.2998,4.60031,2470.11,2022-5-08T04:17:46Z
2022-05-08T02:19:08Z,42.805,6.029,13.2994,4.60032,2470.124,2022-5-08T04:20:49Z
2022-05-08T02:22:12Z,42.805,6.029,13.2998,4.60031,2470.147,2022-5-08T04:23:52Z
2022-05-08T02:25:15Z,42.805,6.029,13.2998,4.60032,2470.156,2022-5-08T04:26:55Z
2022-05-08T02:28:18Z,42.805,6.029,13.2997,4.60031,2470.124,2022-5-08T04:29:58Z
2022-05-08T02:31:21Z,42.805,6.029,13.3001,4.60031,2470.133,2022-5-08T04:33:01Z
2022-05-08T02:34:24Z,42.805,6.029,13.2996,4.60032,2470.133,2022-5-08T04:36:04Z
2022-05-08T02:37:27Z,42.805,6.029,13.2994,4.60031,2470.147,2022-5-08T04:39:07Z
2022-05-08T02:40:30Z,42.805,6.029,13.2994,4.60031,2470.133,2022-5-08T04:42:11Z
2022-05-08T02:43:33Z,42.805,6.029,13.2999,4.60031,2470.147,2022-5-08T04:45:14Z
2022-05-08T02:46:37Z,42.805,6.029,13.2997,4.60031,2470.133,2022-5-08T04:48:17Z
2022-05-08T02:49:40Z,42.805,6.029,13.2992,4.60031,2470.147,2022-5-08T04:51:20Z
2022-05-08T02:52:43Z,42.805,6.029,13.2998,4.60031,2470.133,2022-5-08T04:54:23Z
2022-05-08T02:55:46Z,42.805,6.029,13.2997,4.60031,2470.077,2022-5-08T04:57:26Z
2022-05-08T02:58:49Z,42.805,6.029,13.2998,4.60031,2470.087,2022-5-08T05:00:29Z
2022-05-08T03:01:52Z,42.805,6.029,13.2994,4.60031,2470.087,2022-5-08T05:03:32Z
2022-05-08T03:04:55Z,42.805,6.029,13.3000,4.60031,2470.087,2022-5-08T05:06:35Z
2022-05-08T03:07:58Z,42.805,6.029,13.3000,4.60031,2470.11,2022-5-08T05:09:39Z
2022-05-08T03:11:01Z,42.805,6.029,13.2998,4.60031,2470.124,2022-5-08T05:12:42Z
2022-05-08T03:14:05Z,42.805,6.029,13.2998,4.60031,2470.11,2022-5-08T05:15:45Z
2022-05-08T03:17:08Z,42.805,6.029,13.2998,4.60031,2470.087,2022-5-08T05:18:48Z
2022-05-08T03:20:11Z,42.805,6.029,13.2998,4.60031,2470.087,2022-5-08T05:21:51Z
2022-05-08T03:23:14Z,42.805,6.029,13.2998,4.60031,2470.11,2022-5-08T05:24:54Z
2022-05-08T03:26:17Z,42.805,6.029,13.3000,4.60031,2470.11,2022-5-08T05:27:57Z
2022-05-08T03:29:20Z,42.805,6.029,13.3001,4.60031,2470.11,2022-5-08T05:31:00Z
2022-05-08T03:32:23Z,42.805,6.029,13.2996,4.60031,2470.087,2022-5-08T05:34:04Z
2022-05-08T03:35:26Z,42.805,6.029,13.2995,4.60031,2470.124,2022-5-08T05:37:07Z
2022-05-08T03:38:29Z,42.805,6.029,13.2996,4.60031,2470.087,2022-5-08T05:40:10Z
2022-05-08T03:41:33Z,42.805,6.029,13.2995,4.60031,2470.124,2022-5-08T05:43:13Z
2022-05-08T03:44:36Z,42.805,6.029,13.2999,4.60031,2470.077,2022-5-08T05:46:16Z
2022-05-08T03:47:39Z,42.805,6.029,13.2996,4.60031,2470.063,2022-5-08T05:49:19Z
2022-05-08T03:50:42Z,42.805,6.029,13.2995,4.60030,2470.063,2022-5-08T05:52:22Z
2022-05-08T03:53:45Z,42.805,6.029,13.2996,4.60030,2470.063,2022-5-08T05:55:25Z
2022-05-08T03:56:48Z,42.805,6.029,13.2998,4.60031,2470.063,2022-5-08T05:58:28Z
2022-05-08T03:59:51Z,42.805,6.029,13.2997,4.60031,2470.017,2022-5-08T06:01:32Z
2022-05-08T04:02:54Z,42.805,6.029,13.3000,4.60031,2470.017,2022-5-08T06:04:35Z
2022-05-08T04:05:58Z,42.805,6.029,13.2996,4.60032,2470.087,2022-5-08T06:07:38Z
2022-05-08T04:09:01Z,42.805,6.029,13.2996,4.60031,2470.087,2022-5-08T06:10:41Z
2022-05-08T04:12:04Z,42.805,6.029,13.2996,4.60031,2470.1,2022-5-08T06:13:44Z
2022-05-08T04:15:07Z,42.805,6.029,13.2996,4.60031,2470.063,2022-5-08T06:16:47Z
2022-05-08T04:18:10Z,42.805,6.029,13.2994,4.60030,2470.049,2022-5-08T06:19:50Z
2022-05-08T04:21:13Z,42.805,6.029,13.2992,4.60030,2470.063,2022-5-08T06:22:53Z
2022-05-08T04:24:16Z,42.805,6.029,13.2996,4.60031,2470.04,2022-5-08T06:25:57Z
2022-05-08T04:27:19Z,42.805,6.029,13.2998,4.60031,2470.063,2022-5-08T06:29:00Z
2022-05-08T04:30:22Z,42.805,6.029,13.2998,4.60031,2470.063,2022-5-08T06:32:03Z
2022-05-08T04:33:26Z,42.805,6.029,13.2998,4.60031,2470.063,2022-5-08T06:35:06Z
2022-05-08T04:36:29Z,42.805,6.029,13.2996,4.60030,2470.077,2022-5-08T06:38:09Z
2022-05-08T04:39:32Z,42.805,6.029,13.2998,4.60031,2470.063,2022-5-08T06:41:12Z
2022-05-08T04:42:35Z,42.805,6.029,13.2997,4.60031,2470.04,2022-5-08T06:44:15Z
2022-05-08T04:45:38Z,42.805,6.029,13.2996,4.60031,2470.063,2022-5-08T06:47:18Z
2022-05-08T04:48:41Z,42.805,6.029,13.2998,4.60030,2470.03,2022-5-08T06:50:21Z
2022-05-08T04:51:44Z,42.805,6.029,13.2996,4.60031,2470.053,2022-5-08T06:53:25Z
2022-05-08T04:54:47Z,42.805,6.029,13.2998,4.60031,2470.077,2022-5-08T06:56:28Z
2022-05-08T04:57:50Z,42.805,6.029,13.2997,4.60031,2470.04,2022-5-08T06:59:31Z
2022-05-08T05:00:54Z,42.805,6.029,13.2995,4.60031,2470.077,2022-5-08T07:02:34Z
2022-05-08T05:03:57Z,42.805,6.029,13.2996,4.60031,2470.04,2022-5-08T07:05:37Z
2022-05-08T05:07:00Z,42.805,6.029,13.2998,4.60031,2470.11,2022-5-08T07:08:40Z
2022-05-08T05:10:03Z,42.805,6.029,13.2998,4.60031,2470.063,2022-5-08T07:11:43Z
2022-05-08T05:13:06Z,42.805,6.029,13.2998,4.60032,2470.04,2022-5-08T07:14:46Z
2022-05-08T05:16:09Z,42.805,6.029,13.3000,4.60031,2470.1,2022-5-08T07:17:49Z
2022-05-08T05:19:12Z,42.805,6.029,13.2999,4.60031,2470.077,2022-5-08T07:20:53Z
2022-05-08T05:22:15Z,42.805,6.029,13.2994,4.60030,2470.053,2022-5-08T07:23:56Z
2022-05-08T05:25:19Z,42.805,6.029,13.2993,4.60031,2470.077,2022-5-08T07:26:59Z
2022-05-08T05:28:22Z,42.805,6.029,13.2996,4.60031,2470.04,2022-5-08T07:30:02Z
2022-05-08T05:31:25Z,42.805,6.029,13.2996,4.60029,2470.04,2022-5-08T07:33:05Z
2022-05-08T05:34:28Z,42.805,6.029,13.2996,4.60029,2470.017,2022-5-08T07:36:08Z
2022-05-08T05:37:31Z,42.805,6.029,13.3000,4.60029,2470.063,2022-5-08T07:39:11Z
2022-05-08T05:40:34Z,42.805,6.029,13.2996,4.60031,2470.063,2022-5-08T07:42:14Z
2022-05-08T05:43:37Z,42.805,6.029,13.2996,4.60030,2470.053,2022-5-08T07:45:18Z
2022-05-08T05:46:40Z,42.805,6.029,13.2996,4.60029,2470.04,2022-5-08T07:48:21Z
2022-05-08T05:49:43Z,42.805,6.029,13.2996,4.60031,2470.017,2022-5-08T07:51:24Z
2022-05-08T05:52:47Z,42.805,6.029,13.2998,4.60031,2470.017,2022-5-08T07:54:27Z
2022-05-08T05:55:50Z,42.805,6.029,13.2998,4.60031,2470.063,2022-5-08T07:57:30Z
2022-05-08T05:58:53Z,42.805,6.029,13.2998,4.60030,2470.017,2022-5-08T08:00:33Z
2022-05-08T06:01:56Z,42.805,6.029,13.2996,4.60031,2470.063,2022-5-08T08:03:36Z
2022-05-08T06:04:59Z,42.805,6.029,13.3001,4.60031,2470.04,2022-5-08T08:06:39Z
2022-05-08T06:08:02Z,42.805,6.029,13.2998,4.60032,2469.993,2022-5-08T08:09:42Z
2022-05-08T06:11:05Z,42.805,6.029,13.2996,4.60031,2470.003,2022-5-08T08:12:46Z
2022-05-08T06:14:08Z,42.805,6.029,13.2994,4.60030,2470.017,2022-5-08T08:15:49Z
2022-05-08T06:17:12Z,42.805,6.029,13.2995,4.60030,2470.04,2022-5-08T08:18:52Z
2022-05-08T06:20:15Z,42.805,6.029,13.2996,4.60031,2470.03,2022-5-08T08:21:55Z
2022-05-08T06:23:18Z,42.805,6.029,13.2998,4.60032,2470.04,2022-5-08T08:24:58Z
2022-05-08T06:26:21Z,42.805,6.029,13.2998,4.60031,2470.017,2022-5-08T08:28:01Z
2022-05-08T06:29:24Z,42.805,6.029,13.2993,4.60031,2470.063,2022-5-08T08:31:04Z
2022-05-08T06:32:27Z,42.805,6.029,13.2996,4.60031,2470.053,2022-5-08T08:34:07Z
2022-05-08T06:35:30Z,42.805,6.029,13.2998,4.60031,2469.993,2022-5-08T08:37:10Z
2022-05-08T06:38:33Z,42.805,6.029,13.2998,4.60031,2470.04,2022-5-08T08:40:14Z
2022-05-08T06:41:36Z,42.805,6.029,13.2996,4.60030,2470.053,2022-5-08T08:43:17Z
2022-05-08T06:44:40Z,42.805,6.029,13.2997,4.60030,2470.017,2022-5-08T08:46:20Z
2022-05-08T06:47:43Z,42.805,6.029,13.3002,4.60031,2469.993,2022-5-08T08:49:23Z
2022-05-08T06:50:46Z,42.805,6.029,13.2997,4.60032,2470.017,2022-5-08T08:52:26Z
2022-05-08T06:53:49Z,42.805,6.029,13.2996,4.60031,2470.04,2022-5-08T08:55:29Z
2022-05-08T06:56:52Z,42.805,6.029,13.2998,4.60031,2470.017,2022-5-08T08:58:32Z
2022-05-08T06:59:55Z,42.805,6.029,13.2999,4.60031,2470.017,2022-5-08T09:01:35Z
2022-05-08T07:02:58Z,42.805,6.029,13.2993,4.60029,2470.017,2022-5-08T09:04:39Z
2022-05-08T07:06:01Z,42.805,6.029,13.2997,4.60031,2470.03,2022-5-08T09:07:42Z
2022-05-08T07:09:04Z,42.805,6.029,13.2998,4.60031,2469.993,2022-5-08T09:10:45Z
2022-05-08T07:12:08Z,42.805,6.029,13.2997,4.60031,2470.007,2022-5-08T09:13:48Z
2022-05-08T07:15:11Z,42.805,6.029,13.2998,4.60031,2470.007,2022-5-08T09:16:51Z
2022-05-08T07:18:14Z,42.805,6.029,13.3000,4.60032,2469.97,2022-5-08T09:19:54Z
2022-05-08T07:21:17Z,42.805,6.029,13.2998,4.60032,2470.017,2022-5-08T09:22:57Z
2022-05-08T07:24:20Z,42.805,6.029,13.2998,4.60031,2470.007,2022-5-08T09:26:00Z
2022-05-08T07:27:23Z,42.805,6.029,13.3000,4.60031,2470.04,2022-5-08T09:29:03Z
2022-05-08T07:30:26Z,42.805,6.029,13.2998,4.60030,2470.04,2022-5-08T09:32:07Z
2022-05-08T07:33:29Z,42.805,6.029,13.2998,4.60030,2469.993,2022-5-08T09:35:10Z
2022-05-08T07:36:32Z,42.805,6.029,13.2995,4.60032,2470.007,2022-5-08T09:38:13Z
2022-05-08T07:39:36Z,42.805,6.029,13.2996,4.60032,2469.993,2022-5-08T09:41:16Z
2022-05-08T07:42:39Z,42.805,6.029,13.2999,4.60031,2469.993,2022-5-08T09:44:19Z
2022-05-08T07:45:42Z,42.805,6.029,13.2995,4.60031,2469.993,2022-5-08T09:47:22Z
2022-05-08T07:48:45Z,42.805,6.029,13.2998,4.60030,2470.007,2022-5-08T09:50:25Z
2022-05-08T07:51:48Z,42.805,6.029,13.2998,4.60031,2470.053,2022-5-08T09:53:28Z
2022-05-08T07:54:51Z,42.805,6.029,13.3001,4.60029,2470.017,2022-5-08T09:56:32Z
2022-05-08T07:57:54Z,42.805,6.029,13.2999,4.60029,2470.053,2022-5-08T09:59:35Z
2022-05-08T08:00:57Z,42.805,6.029,13.2997,4.60031,2469.993,2022-5-08T10:02:38Z
2022-05-08T08:04:01Z,42.805,6.029,13.3000,4.60031,2470.017,2022-5-08T10:05:41Z
2022-05-08T08:07:04Z,42.805,6.029,13.2998,4.60031,2470.04,2022-5-08T10:08:44Z
2022-05-08T08:10:07Z,42.805,6.029,13.2998,4.60031,2470.03,2022-5-08T10:11:47Z
2022-05-08T08:13:10Z,42.805,6.029,13.3001,4.60029,2469.993,2022-5-08T10:14:50Z
2022-05-08T08:16:13Z,42.805,6.029,13.2996,4.60031,2470.017,2022-5-08T10:17:53Z
2022-05-08T08:19:16Z,42.805,6.029,13.2999,4.60031,2470.003,2022-5-08T10:20:56Z
2022-05-08T08:22:19Z,42.805,6.029,13.2995,4.60030,2470.017,2022-5-08T10:24:00Z
2022-05-08T08:25:22Z,42.805,6.029,13.2994,4.60029,2469.993,2022-5-08T10:27:03Z
2022-05-08T08:28:26Z,42.805,6.029,13.2997,4.60031,2470.017,2022-5-08T10:30:06Z
2022-05-08T08:31:29Z,42.805,6.029,13.2998,4.60031,2470.026,2022-5-08T10:33:09Z
2022-05-08T08:34:32Z,42.805,6.029,13.2999,4.60033,2470.017,2022-5-08T10:36:12Z
2022-05-08T08:37:35Z,42.805,6.029,13.2996,4.60032,2470.017,2022-5-08T10:39:15Z
2022-05-08T08:40:38Z,42.805,6.029,13.2999,4.60031,2470.04,2022-5-08T10:42:18Z
2022-05-08T08:43:41Z,42.805,6.029,13.2993,4.60029,2470.017,2022-5-08T10:45:21Z
2022-05-08T08:46:44Z,42.805,6.029,13.2997,4.60032,2470.077,2022-5-08T10:48:25Z
2022-05-08T08:49:47Z,42.805,6.029,13.2995,4.60032,2470.04,2022-5-08T10:51:28Z
2022-05-08T08:52:50Z,42.805,6.029,13.3000,4.60029,2470.04,2022-5-08T10:54:31Z
2022-05-08T08:55:54Z,42.805,6.029,13.2996,4.60029,2470.04,2022-5-08T10:57:34Z
2022-05-08T08:58:57Z,42.805,6.029,13.2997,4.60031,2470.017,2022-5-08T11:00:37Z
2022-05-08T09:02:00Z,42.805,6.029,13.2997,4.60031,2470.04,2022-5-08T11:03:40Z
2022-05-08T09:05:03Z,42.805,6.029,13.2995,4.60032,2470.017,2022-5-08T11:06:43Z
2022-05-08T09:08:06Z,42.805,6.029,13.3000,4.60030,2470.053,2022-5-08T11:09:46Z
2022-05-08T09:11:09Z,42.805,6.029,13.2996,4.60031,2470.04,2022-5-08T11:12:50Z
2022-05-08T09:14:12Z,42.805,6.029,13.3001,4.60032,2470.063,2022-5-08T11:15:53Z
2022-05-08T09:17:15Z,42.805,6.029,13.2996,4.60031,2470.063,2022-5-08T11:18:56Z
2022-05-08T09:20:19Z,42.805,6.029,13.2995,4.60031,2470.04,2022-5-08T11:21:59Z
2022-05-08T09:23:22Z,42.805,6.029,13.2997,4.60032,2470.04,2022-5-08T11:25:02Z
2022-05-08T09:26:25Z,42.805,6.029,13.2998,4.60030,2470.077,2022-5-08T11:28:05Z
2022-05-08T09:29:28Z,42.805,6.029,13.2993,4.60031,2470.04,2022-5-08T11:31:08Z
2022-05-08T09:32:31Z,42.805,6.029,13.2995,4.60031,2470.053,2022-5-08T11:34:11Z
2022-05-08T09:35:34Z,42.805,6.029,13.2995,4.60031,2470.077,2022-5-08T11:37:14Z
2022-05-08T09:38:37Z,42.805,6.029,13.2996,4.60031,2470.063,2022-5-08T11:40:18Z
2022-05-08T09:41:40Z,42.805,6.029,13.2997,4.60030,2470.04,2022-5-08T11:43:21Z
2022-05-08T09:44:44Z,42.805,6.029,13.2995,4.60029,2470.017,2022-5-08T11:46:24Z
2022-05-08T09:47:47Z,42.805,6.029,13.2999,4.60031,2470.053,2022-5-08T11:49:27Z
2022-05-08T09:50:50Z,42.805,6.029,13.2998,4.60030,2470.049,2022-5-08T11:52:30Z
2022-05-08T09:53:53Z,42.805,6.029,13.2998,4.60031,2470.077,2022-5-08T11:55:33Z
2022-05-08T09:56:56Z,42.805,6.029,13.3000,4.60031,2470.077,2022-5-08T11:58:36Z
2022-05-08T09:59:59Z,42.805,6.029,13.2997,4.60031,2470.03,2022-5-08T12:01:39Z
2022-05-08T10:03:02Z,42.805,6.029,13.2996,4.60030,2470.063,2022-5-08T12:04:43Z
2022-05-08T10:06:05Z,42.805,6.029,13.2997,4.60029,2470.04,2022-5-08T12:07:46Z
2022-05-08T10:09:09Z,42.805,6.029,13.3000,4.60030,2470.04,2022-5-08T12:10:49Z
2022-05-08T10:12:12Z,42.805,6.029,13.2996,4.60031,2470.053,2022-5-08T12:13:52Z
2022-05-08T10:15:15Z,42.805,6.029,13.2998,4.60031,2470.053,2022-5-08T12:16:55Z
2022-05-08T10:18:18Z,42.805,6.029,13.2997,4.60030,2470.053,2022-5-08T12:19:58Z
2022-05-08T10:21:21Z,42.805,6.029,13.2996,4.60030,2470.017,2022-5-08T12:23:01Z
2022-05-08T10:24:24Z,42.805,6.029,13.2998,4.60031,2470.077,2022-5-08T12:26:04Z
2022-05-08T10:27:27Z,42.805,6.029,13.2993,4.60031,2470.03,2022-5-08T12:29:08Z
2022-05-08T10:30:30Z,42.805,6.029,13.2998,4.60031,2470.04,2022-5-08T12:32:11Z
2022-05-08T10:33:33Z,42.805,6.029,13.2995,4.60031,2470.04,2022-5-08T12:35:14Z
2022-05-08T10:36:37Z,42.805,6.029,13.2993,4.60032,2470.04,2022-5-08T12:38:17Z
2022-05-08T10:39:40Z,42.805,6.029,13.2994,4.60031,2470.03,2022-5-08T12:41:20Z
2022-05-08T10:42:43Z,42.805,6.029,13.2996,4.60031,2470.053,2022-5-08T12:44:23Z
2022-05-08T10:45:46Z,42.805,6.029,13.2998,4.60031,2470.063,2022-5-08T12:47:26Z
2022-05-08T10:48:49Z,42.805,6.029,13.2998,4.60029,2470.04,2022-5-08T12:50:29Z
2022-05-08T10:51:52Z,42.805,6.029,13.2997,4.60029,2470.087,2022-5-08T12:53:33Z
2022-05-08T10:54:55Z,42.805,6.029,13.2998,4.60031,2470.017,2022-5-08T12:56:36Z
2022-05-08T10:57:58Z,42.805,6.029,13.2995,4.60029,2470.087,2022-5-08T12:59:39Z
2022-05-08T11:01:02Z,42.805,6.029,13.2998,4.60032,2470.063,2022-5-08T13:02:42Z
2022-05-08T11:04:05Z,42.805,6.029,13.2999,4.60029,2470.04,2022-5-08T13:05:45Z
2022-05-08T11:07:08Z,42.805,6.029,13.3000,4.60031,2470.063,2022-5-08T13:08:48Z
2022-05-08T11:10:11Z,42.805,6.029,13.2998,4.60031,2470.1,2022-5-08T13:11:51Z
2022-05-08T11:13:14Z,42.805,6.029,13.2997,4.60031,2470.077,2022-5-08T13:14:54Z
2022-05-08T11:16:17Z,42.805,6.029,13.3000,4.60029,2470.063,2022-5-08T13:17:58Z
2022-05-08T11:19:20Z,42.805,6.029,13.2993,4.60031,2470.063,2022-5-08T13:21:01Z
2022-05-08T11:22:23Z,42.805,6.029,13.2997,4.60030,2470.053,2022-5-08T13:24:04Z
2022-05-08T11:25:27Z,42.805,6.029,13.2992,4.60030,2470.077,2022-5-08T13:27:07Z
2022-05-08T11:28:30Z,42.805,6.029,13.3000,4.60029,2470.063,2022-5-08T13:30:10Z
2022-05-08T11:31:33Z,42.805,6.029,13.2997,4.60031,2470.063,2022-5-08T13:33:13Z
2022-05-08T11:34:36Z,42.805,6.029,13.2998,4.60031,2470.04,2022-5-08T13:36:16Z
2022-05-08T11:37:39Z,42.805,6.029,13.3000,4.60030,2470.077,2022-5-08T13:39:19Z
2022-05-08T11:40:42Z,42.805,6.029,13.2998,4.60031,2470.04,2022-5-08T13:42:23Z
2022-05-08T11:43:45Z,42.805,6.029,13.2996,4.60029,2470.087,2022-5-08T13:45:26Z
2022-05-08T11:46:48Z,42.805,6.029,13.3000,4.60031,2470.087,2022-5-08T13:48:29Z
2022-05-08T11:49:52Z,42.805,6.029,13.2997,4.60029,2470.063,2022-5-08T13:51:32Z
2022-05-08T11:52:55Z,42.805,6.029,13.2997,4.60031,2470.077,2022-5-08T13:54:35Z
2022-05-08T11:55:58Z,42.805,6.029,13.2997,4.60029,2470.063,2022-5-08T13:57:38Z
2022-05-08T11:59:01Z,42.805,6.029,13.2997,4.60030,2470.04,2022-5-08T14:00:41Z
2022-05-08T12:02:04Z,42.805,6.029,13.2998,4.60030,2470.063,2022-5-08T14:03:44Z
2022-05-08T12:05:07Z,42.805,6.029,13.2996,4.60031,2470.11,2022-5-08T14:06:47Z
2022-05-08T12:08:10Z,42.805,6.029,13.3001,4.60031,2470.049,2022-5-08T14:09:51Z
2022-05-08T12:11:13Z,42.805,6.029,13.2996,4.60030,2470.087,2022-5-08T14:12:54Z
2022-05-08T12:14:17Z,42.805,6.029,13.2996,4.60030,2470.063,2022-5-08T14:15:57Z
2022-05-08T12:17:20Z,42.805,6.029,13.2995,4.60031,2470.087,2022-5-08T14:19:00Z
2022-05-08T12:20:23Z,42.805,6.029,13.2999,4.60029,2470.077,2022-5-08T14:22:03Z
2022-05-08T12:23:26Z,42.805,6.029,13.2996,4.60030,2470.087,2022-5-08T14:25:06Z
2022-05-08T12:26:29Z,42.805,6.029,13.2994,4.60031,2470.087,2022-5-08T14:28:09Z
2022-05-08T12:29:32Z,42.805,6.029,13.2998,4.60031,2470.087,2022-5-08T14:31:12Z
2022-05-08T12:32:35Z,42.805,6.029,13.2999,4.60031,2470.063,2022-5-08T14:34:16Z
2022-05-08T12:35:38Z,42.805,6.029,13.2998,4.60031,2470.063,2022-5-08T14:37:19Z
2022-05-08T12:38:41Z,42.805,6.029,13.2999,4.60031,2470.077,2022-5-08T14:40:22Z
2022-05-08T12:41:45Z,42.805,6.029,13.2998,4.60031,2470.087,2022-5-08T14:43:25Z
2022-05-08T12:44:48Z,42.805,6.029,13.2997,4.60029,2470.1,2022-5-08T14:46:28Z
2022-05-08T12:47:51Z,42.805,6.029,13.2998,4.60029,2470.11,2022-5-08T14:49:31Z
2022-05-08T12:50:54Z,42.805,6.029,13.2997,4.60031,2470.063,2022-5-08T14:52:34Z
2022-05-08T12:53:57Z,42.805,6.029,13.2998,4.60031,2470.133,2022-5-08T14:55:37Z
2022-05-08T12:57:00Z,42.805,6.029,13.2996,4.60029,2470.077,2022-5-08T14:58:41Z
2022-05-08T13:00:03Z,42.805,6.029,13.2998,4.60031,2470.087,2022-5-08T15:01:44Z
2022-05-08T13:03:06Z,42.805,6.029,13.2995,4.60031,2470.087,2022-5-08T15:04:47Z
2022-05-08T13:06:10Z,42.805,6.029,13.2996,4.60030,2470.063,2022-5-08T15:07:50Z
2022-05-08T13:09:13Z,42.805,6.029,13.2998,4.60031,2470.077,2022-5-08T15:10:53Z
2022-05-08T13:12:16Z,42.805,6.029,13.2998,4.60031,2470.063,2022-5-08T15:13:56Z
2022-05-08T13:15:19Z,42.805,6.029,13.3000,4.60029,2470.087,2022-5-08T15:16:59Z
2022-05-08T13:18:22Z,42.805,6.029,13.2996,4.60030,2470.1,2022-5-08T15:20:02Z
2022-05-08T13:21:25Z,42.805,6.029,13.2997,4.60031,2470.063,2022-5-08T15:23:06Z
2022-05-08T13:24:28Z,42.805,6.029,13.2998,4.60031,2470.087,2022-5-08T15:26:09Z
2022-05-08T13:27:31Z,42.805,6.029,13.2995,4.60031,2470.1,2022-5-08T15:29:12Z
2022-05-08T13:30:35Z,42.805,6.029,13.2998,4.60029,2470.11,2022-5-08T15:32:15Z
2022-05-08T13:33:38Z,42.805,6.029,13.2998,4.60031,2470.063,2022-5-08T15:35:18Z
2022-05-08T13:36:41Z,42.805,6.029,13.2996,4.60030,2470.063,2022-5-08T15:38:21Z
2022-05-08T13:39:44Z,42.805,6.029,13.2996,4.60029,2470.077,2022-5-08T15:41:24Z
2022-05-08T13:42:47Z,42.805,6.029,13.2994,4.60029,2470.11,2022-5-08T15:44:27Z
2022-05-08T13:45:50Z,42.805,6.029,13.2995,4.60031,2470.11,2022-5-08T15:47:31Z
2022-05-08T13:48:53Z,42.805,6.029,13.2998,4.60030,2470.053,2022-5-08T15:50:34Z
2022-05-08T13:51:56Z,42.805,6.029,13.2996,4.60030,2470.1,2022-5-08T15:53:37Z
2022-05-08T13:55:00Z,42.805,6.029,13.2998,4.60030,2470.087,2022-5-08T15:56:40Z
2022-05-08T13:58:03Z,42.805,6.029,13.3000,4.60029,2470.087,2022-5-08T15:59:43Z
2022-05-08T14:01:06Z,42.805,6.029,13.2996,4.60029,2470.077,2022-5-08T16:02:46Z
2022-05-08T14:04:09Z,42.805,6.029,13.2994,4.60031,2470.077,2022-5-08T16:05:49Z
2022-05-08T14:07:12Z,42.805,6.029,13.2996,4.60031,2470.087,2022-5-08T16:08:52Z
2022-05-08T14:10:15Z,42.805,6.029,13.2994,4.60031,2470.11,2022-5-08T16:11:55Z
2022-05-08T14:13:18Z,42.805,6.029,13.2996,4.60030,2470.087,2022-5-08T16:14:59Z
2022-05-08T14:16:21Z,42.805,6.029,13.2998,4.60031,2470.1,2022-5-08T16:18:02Z
2022-05-08T14:19:24Z,42.805,6.029,13.2998,4.60031,2470.063,2022-5-08T16:21:05Z
2022-05-08T14:22:28Z,42.805,6.029,13.2995,4.60029,2470.1,2022-5-08T16:24:08Z
2022-05-08T14:25:31Z,42.805,6.029,13.2997,4.60030,2470.063,2022-5-08T16:27:11Z
2022-05-08T14:28:34Z,42.805,6.029,13.2996,4.60031,2470.087,2022-5-08T16:30:14Z
2022-05-08T14:31:37Z,42.805,6.029,13.2993,4.60031,2470.1,2022-5-08T16:33:17Z
2022-05-08T14:34:40Z,42.805,6.029,13.3000,4.60030,2470.087,2022-5-08T16:36:20Z
2022-05-08T14:37:43Z,42.805,6.029,13.2997,4.60031,2470.063,2022-5-08T16:39:24Z
2022-05-08T14:40:46Z,42.805,6.029,13.2996,4.60030,2470.087,2022-5-08T16:42:27Z
2022-05-08T14:43:49Z,42.805,6.029,13.2993,4.60030,2470.063,2022-5-08T16:45:30Z
2022-05-08T14:46:53Z,42.805,6.029,13.2996,4.60031,2470.063,2022-5-08T16:48:33Z
2022-05-08T14:49:56Z,42.805,6.029,13.2997,4.60030,2470.11,2022-5-08T16:51:36Z
2022-05-08T14:52:59Z,42.805,6.029,13.2997,4.60030,2470.063,2022-5-08T16:54:39Z
2022-05-08T14:56:02Z,42.805,6.029,13.2996,4.60031,2470.073,2022-5-08T16:57:42Z
2022-05-08T14:59:05Z,42.805,6.029,13.2996,4.60029,2470.1,2022-5-08T17:00:45Z
2022-05-08T15:02:08Z,42.805,6.029,13.2996,4.60031,2470.1,2022-5-08T17:03:49Z
2022-05-08T15:05:11Z,42.805,6.029,13.2993,4.60030,2470.11,2022-5-08T17:06:52Z
2022-05-08T15:08:14Z,42.805,6.029,13.3000,4.60031,2470.1,2022-5-08T17:09:55Z
2022-05-08T15:11:18Z,42.805,6.029,13.2998,4.60031,2470.063,2022-5-08T17:12:58Z
2022-05-08T15:14:21Z,42.805,6.029,13.2998,4.60030,2470.124,2022-5-08T17:16:01Z